Tracking 19817 objects as of 20-Aug-2019
HD Live streaming from Space Station
objects crossing your sky now

METEOR 2-17 DEB

Track METEOR 2-17 DEB now!
10-day predictions


NORAD ID: 28993
Int'l Code: 1988-005H
Perigee: 925.4 km
Apogee: 937.6 km
Inclination: 82.5 °
Period: 103.5 minutes
Semi major axis: 7302 km
RCS: 0.0011 m2 (small)
Launch date: January 30, 1988
Source: Commonwealth of Independent States (former USSR) (CIS)
Launch site: PLESETSK MISSILE AND SPACE COMPLEX (PKMTR)

Note: This is SATELLITE DEBRIS
aabbcc
Your satellite tracking list
Your tracking list is empty




NASA's NSSDC Master Catalog

Two Line Element Set (TLE):
1 28993U 88005H   18280.55546302 +.00000982 +00000-0 +76849-3 0  9997
2 28993 082.5312 021.7032 0008352 156.2474 203.9078 13.91213875636358
Source of the keplerian elements: AFSPC